EW3861 Weather Reports


time (UTC)temp
F
wind
direction
speed
knots
gust
knots
rain 1hr
in
rain 24hr
in
rain mn
in
humidity
%
barometer
mb
20260901201530 62 148 0.0 0.0 0.00 0.00 0.00 93 1016.7
20260901200029 62 207 0.0 0.0 0.00 0.00 0.00 93 1016.7
20260901194527 62 163 0.0 0.0 0.00 0.00 0.00 93 1016.7
20260901193031 62 163 0.0 0.0 0.00 0.00 0.00 93 1016.7
20260901191525 63 199 0.0 0.0 0.00 0.00 0.00 93 1016.7
20260901190023 63 199 0.0 0.0 0.00 0.00 0.00 93 1016.4
20260901184538 63 220 0.0 0.0 0.00 0.00 0.00 92 1016.4
20260901183021 63 217 0.0 0.0 0.00 0.00 0.00 92 1016.5
20260901181531 64 231 0.0 0.0 0.00 0.00 0.00 90 1016.5
20260901180018 64 232 0.0 0.0 0.00 0.00 0.00 88 1016.3
20260901174540 65 230 0.0 0.0 0.00 0.00 0.00 85 1015.8
20260901173019 66 228 0.0 0.0 0.00 0.00 0.00 83 1016.3
20260901171518 67 231 0.0 0.0 0.00 0.00 0.00 81 1016.1
20260901170014 67 226 0.0 0.0 0.00 0.00 0.00 84 1016.0
20260901164514 68 248 0.0 0.0 0.00 0.00 0.00 85 1016.1
20260901163013 68 229 0.0 0.0 0.00 0.00 0.00 85 1015.9
20260901161513 68 234 0.0 0.0 0.00 0.00 0.00 86 1015.8
20260901160021 69 234 0.0 0.0 0.00 0.00 0.00 88 1015.9
20260901154510 69 276 0.0 0.0 0.00 0.00 0.00 90 1015.8
20260901153013 69 264 0.0 0.0 0.00 0.00 0.00 92 1016.0
20260901151510 69 267 0.0 0.0 0.00 0.00 0.00 94 1016.1
20260901150012 68 268 0.0 0.0 0.00 0.00 0.00 95 1016.2
20260901144508 68 274 0.0 0.0 0.00 0.00 0.00 96 1016.4
20260901143003 67 277 0.0 0.0 0.00 0.00 0.00 96 1016.2
20260901141501 66 277 0.0 0.0 0.00 0.00 0.00 96 1016.5
20260901140059 66 232 0.0 0.0 0.00 0.00 0.00 96 1016.6
20260901134558 66 232 0.0 0.0 0.00 0.00 0.00 96 1016.6
20260901133057 65 232 0.0 0.0 0.00 0.00 0.00 96 1016.5
20260901131555 65 232 0.0 0.0 0.00 0.00 0.00 96 1016.5
20260901130054 65 232 0.0 0.0 0.00 0.00 0.00 95 1016.7
20260901124554 65 232 0.0 0.0 0.00 0.00 0.00 95 1016.6
20260901123111 65 232 0.0 0.0 0.00 0.00 0.00 95 1016.4
20260901121553 65 232 0.0 0.0 0.00 0.00 0.00 95 1016.5
20260901120058 65 232 0.0 0.0 0.00 0.00 0.00 95 1016.4
20260901114555 65 232 0.0 0.0 0.00 0.00 0.00 95 1016.3
20260901113054 65 232 0.0 0.0 0.00 0.00 0.00 95 1016.1
20260901111602 64 232 0.0 0.0 0.00 0.00 0.00 95 1016.2
20260901110048 64 232 0.0 0.0 0.00 0.00 0.00 94 1016.1
20260901104550 64 232 0.0 0.0 0.00 0.00 0.00 94 1016.1
20260901103047 64 232 0.0 0.0 0.00 0.00 0.00 94 1015.9
20260901101548 64 232 0.0 0.0 0.00 0.00 0.00 94 1015.7
20260901100049 64 232 0.0 0.0 0.00 0.00 0.00 94 1015.7
20260901094546 64 232 0.0 0.0 0.00 0.00 0.00 94 1015.8
20260901093045 64 232 0.0 0.0 0.00 0.00 0.00 94 1015.8
20260901091544 64 232 0.0 0.0 0.00 0.00 0.00 93 1015.7
20260901090042 64 232 0.0 0.0 0.00 0.00 0.00 93 1015.8
20260901084541 64 232 0.0 0.0 0.00 0.00 0.00 93 1015.9
20260901083040 64 232 0.0 0.0 0.00 0.00 0.00 93 1016.1
20260901081538 65 232 0.0 0.0 0.00 0.00 0.00 92 1016.5
20260901080038 65 232 0.0 0.0 0.00 0.00 0.00 93 1016.5
20260901074536 65 232 0.0 0.0 0.00 0.00 0.00 92 1016.4
20260901073035 65 232 0.0 0.0 0.00 0.00 0.00 93 1016.5
20260901071534 65 232 0.0 0.0 0.00 0.00 0.00 92 1016.6
20260901070032 65 232 0.0 0.0 0.00 0.00 0.00 92 1016.6
20260901064533 65 232 0.0 0.0 0.00 0.00 0.00 91 1016.7
20260901063036 65 232 0.0 0.0 0.00 0.00 0.00 91 1016.8
20260901061531 65 232 0.0 0.0 0.00 0.00 0.00 91 1016.8
20260901060029 65 232 0.0 0.0 0.00 0.00 0.00 91 1016.7
20260901054529 65 232 0.0 0.0 0.00 0.00 0.00 90 1016.7
20260901053026 65 232 0.0 0.0 0.00 0.00 0.00 90 1016.9
20260901051537 65 232 0.0 0.0 0.00 0.00 0.00 90 1017.0
20260901050025 65 232 0.0 0.0 0.00 0.00 0.00 89 1017.0
20260901044524 65 232 0.0 0.0 0.00 0.00 0.00 89 1017.1
20260901043031 66 232 0.0 0.0 0.00 0.00 0.00 89 1016.9
20260901041520 66 232 0.0 0.0 0.00 0.00 0.00 89 1017.1
20260901040022 66 232 0.0 0.0 0.00 0.00 0.00 89 1017.2
20260901034517 66 232 0.0 0.0 0.00 0.00 0.00 88 1017.3
20260901033018 66 232 0.0 0.0 0.00 0.00 0.00 88 1017.2
20260901031516 66 232 0.0 0.0 0.00 0.00 0.00 88 1017.2
20260901030013 66 232 0.0 0.0 0.00 0.00 0.00 88 1017.3
20260901024513 66 232 0.0 0.0 0.00 0.00 0.00 87 1017.3
20260901023012 67 232 0.0 0.0 0.00 0.00 0.00 88 1017.2
20260901021512 67 232 0.0 0.0 0.00 0.00 0.00 87 1017.3
20260901020011 67 229 0.0 0.0 0.00 0.00 0.00 87 1017.4
20260901014513 67 229 0.0 0.0 0.00 0.00 0.00 86 1017.5
20260901013014 67 226 0.0 0.0 0.00 0.00 0.00 86 1017.5
20260901011510 67 225 0.0 0.0 0.00 0.00 0.00 85 1017.4
20260901010009 67 223 0.0 0.0 0.00 0.00 0.00 85 1017.4
20260901004509 68 231 0.0 0.0 0.00 0.00 0.00 84 1017.3
20260901003009 68 229 0.0 0.0 0.00 0.00 0.00 83 1017.4
20260901001508 69 229 0.0 0.0 0.00 0.00 0.00 82 1017.3
20260901000007 69 226 0.0 0.0 0.00 0.00 0.00 81 1017.4
20260831234508 69 221 0.0 0.0 0.00 0.00 0.00 81 1017.4
20260831233008 70 229 0.0 0.0 0.00 0.00 0.00 80 1017.3
20260831231506 70 229 0.0 0.0 0.00 0.00 0.00 78 1017.4
20260831230006 71 200 0.0 0.0 0.00 0.00 0.00 78 1017.3
20260831224504 71 200 0.0 0.0 0.00 0.00 0.00 78 1017.3
20260831223005 72 223 0.0 0.0 0.00 0.00 0.00 74 1017.4
20260831221504 73 250 0.0 0.0 0.00 0.00 0.00 75 1017.5
20260831220005 74 250 0.0 0.0 0.00 0.00 0.00 71 1017.4
20260831214503 74 250 0.0 0.0 0.00 0.00 0.00 71 1017.4
20260831213002 75 250 0.0 0.0 0.00 0.00 0.00 70 1017.3
20260831211503 75 250 0.0 0.0 0.00 0.00 0.00 71 1017.3
20260831210001 74 253 0.0 0.0 0.00 0.00 0.00 68 1017.4
20260831204502 75 253 0.0 0.0 0.00 0.00 0.00 66 1017.4
20260831203108 75 253 0.0 0.0 0.00 0.00 0.00 64 1017.3